KJ7OGG Weather Reports


time (UTC)temp
C
wind
direction
speed
KPH
gust
KPH
rain 1hr
cm
rain 24hr
cm
rain mn
cm
humidity
%
barometer
mb
20260507101735 20 132 0.0 0.0 0.00 0.00 0.00 31 1010.0
20260507101228 20 141 0.0 0.0 0.00 0.00 0.00 31 1010.1
20260507100722 20 148 0.0 0.0 0.00 0.00 0.00 31 1010.2
20260507100215 20 152 0.0 0.0 0.00 0.00 0.00 31 1010.2
20260507095710 20 152 0.0 0.0 0.00 0.00 0.00 30 1010.2
20260507095204 21 152 0.0 0.0 0.00 0.00 0.00 30 1010.2
20260507094658 21 199 0.0 0.0 0.00 0.00 0.00 30 1010.3
20260507094152 20 258 0.0 0.0 0.00 0.00 0.00 31 1010.3
20260507094127 21 258 0.0 0.0 0.00 0.00 0.00 31 1010.3
20260507093141 21 258 0.0 0.0 0.00 0.00 0.00 31 1010.3
20260507093117 21 258 0.0 0.0 0.00 0.00 0.00 30 1010.3
20260507092128 21 258 0.0 3.2 0.00 0.00 0.00 30 1010.3
20260507092113 21 258 0.0 3.2 0.00 0.00 0.00 30 1010.3
20260507091115 21 275 0.0 1.6 0.00 0.00 0.00 31 1010.4
20260507090607 21 301 0.0 1.6 0.00 0.00 0.00 30 1010.5
20260507085556 21 26 0.0 1.6 0.00 0.00 0.00 31 1010.4
20260507085050 21 26 0.0 1.6 0.00 0.00 0.00 31 1010.4
20260507084543 21 202 0.0 1.6 0.00 0.00 0.00 29 1010.5
20260507084038 22 184 0.0 1.6 0.00 0.00 0.00 28 1010.4
20260507083533 21 245 0.0 1.6 0.00 0.00 0.00 28 1010.5
20260507083026 21 219 0.0 1.6 0.00 0.00 0.00 28 1010.4
20260507082520 22 222 0.0 3.2 0.00 0.00 0.00 28 1010.5
20260507082014 22 225 0.0 4.8 0.00 0.00 0.00 28 1010.5
20260507081958 22 191 0.0 4.8 0.00 0.00 0.00 28 1010.6
20260507081005 22 209 0.0 3.2 0.00 0.00 0.00 28 1010.6
20260507080505 21 186 0.0 3.2 0.00 0.00 0.00 28 1010.6
20260507080004 21 162 0.0 3.2 0.00 0.00 0.00 28 1010.6
20260507075505 22 187 0.0 3.2 0.00 0.00 0.00 28 1010.6
20260507075003 22 195 0.0 3.2 0.00 0.00 0.00 28 1010.5
20260507074503 22 172 0.0 3.2 0.00 0.00 0.00 28 1010.6
20260507074004 22 184 0.0 3.2 0.00 0.00 0.00 28 1010.6
20260507073502 22 166 0.0 3.2 0.00 0.00 0.00 28 1010.6
20260507072959 22 176 0.0 3.2 0.00 0.00 0.00 28 1010.6
20260507072458 22 179 0.0 3.2 0.00 0.00 0.00 28 1010.6
20260507071957 22 180 0.0 0.0 0.00 0.00 0.00 28 1010.6
20260507071455 22 180 0.0 0.0 0.00 0.00 0.00 28 1010.6
20260507070955 22 184 0.0 0.0 0.00 0.00 0.00 28 1010.5
20260507070453 22 184 0.0 0.0 0.00 0.00 0.00 28 1010.5
20260507065951 22 204 0.0 0.0 0.00 0.00 0.00 28 1010.6
20260507065449 22 188 0.0 3.2 0.00 0.00 0.00 27 1010.6
20260507064949 23 155 0.0 3.2 0.00 0.00 0.00 27 1010.6
20260507064451 22 191 0.0 1.6 0.00 0.00 0.00 27 1010.6
20260507063947 23 186 0.0 1.6 0.00 0.00 0.00 27 1010.6
20260507063451 23 190 0.0 1.6 0.00 0.00 0.00 27 1010.6
20260507063429 23 166 0.0 1.6 0.00 0.00 0.00 27 1010.6
20260507062935 23 203 0.0 1.6 0.00 0.00 0.00 27 1010.6
20260507062424 23 198 0.0 1.6 0.00 0.00 0.00 27 1010.6
20260507061427 23 185 0.0 1.6 0.00 0.00 0.00 27 1010.6
20260507061410 23 191 0.0 1.6 0.00 0.00 0.00 26 1010.6
20260507060900 23 207 0.0 3.2 0.00 0.00 0.00 26 1010.7
20260507055906 23 169 0.0 4.8 0.00 0.00 0.00 26 1010.6
20260507055401 23 193 0.0 4.8 0.00 0.00 0.00 26 1010.6
20260507055335 24 207 1.6 6.4 0.00 0.00 0.00 25 1010.6
20260507054348 24 210 1.6 6.4 0.00 0.00 0.00 25 1010.6
20260507053843 24 200 1.6 4.8 0.00 0.00 0.00 25 1010.6
20260507053337 24 169 1.6 4.8 0.00 0.00 0.00 25 1010.6
20260507052831 24 195 1.6 4.8 0.00 0.00 0.00 25 1010.5
20260507052325 24 197 1.6 4.8 0.00 0.00 0.00 25 1010.5
20260507051819 24 209 0.0 4.8 0.00 0.00 0.00 26 1010.5
20260507051752 23 162 0.0 1.6 0.00 0.00 0.00 26 1010.5
20260507051254 24 166 0.0 1.6 0.00 0.00 0.00 26 1010.5
20260507050742 24 167 0.0 1.6 0.00 0.00 0.00 26 1010.5
20260507045755 24 186 0.0 1.6 0.00 0.00 0.00 26 1010.5
20260507045249 24 179 0.0 1.6 0.00 0.00 0.00 26 1010.5
20260507044743 24 163 0.0 1.6 0.00 0.00 0.00 25 1010.4
20260507044718 24 174 0.0 1.6 0.00 0.00 0.00 25 1010.3
20260507043730 24 175 0.0 1.6 0.00 0.00 0.00 25 1010.3
20260507043225 24 195 0.0 1.6 0.00 0.00 0.00 25 1010.3
20260507042718 24 180 0.0 3.2 0.00 0.00 0.00 25 1010.3
20260507042213 24 197 1.6 3.2 0.00 0.00 0.00 25 1010.3
20260507041706 24 174 1.6 3.2 0.00 0.00 0.00 25 1010.2
20260507041650 24 188 0.0 1.6 0.00 0.00 0.00 25 1010.1
20260507040655 24 192 0.0 1.6 0.00 0.00 0.00 25 1010.0
20260507040148 24 162 0.0 1.6 0.00 0.00 0.00 25 1010.0
20260507035642 24 165 0.0 0.0 0.00 0.00 0.00 25 1009.9
20260507035622 25 165 0.0 0.0 0.00 0.00 0.00 25 1009.8
20260507035114 25 165 0.0 0.0 0.00 0.00 0.00 25 1009.8
20260507034125 25 167 0.0 0.0 0.00 0.00 0.00 24 1009.7
20260507033618 25 170 0.0 3.2 0.00 0.00 0.00 24 1009.6
20260507033113 25 199 0.0 3.2 0.00 0.00 0.00 25 1009.6
20260507032607 25 162 0.0 0.0 0.00 0.00 0.00 25 1009.5
20260507032100 25 193 0.0 3.2 0.00 0.00 0.00 24 1009.4
20260507031555 25 191 0.0 4.8 0.00 0.00 0.00 24 1009.3
20260507031049 25 196 0.0 4.8 0.00 0.00 0.00 24 1009.3
20260507030543 25 169 0.0 4.8 0.00 0.00 0.00 24 1009.2
20260507030037 25 186 0.0 3.2 0.00 0.00 0.00 24 1009.2
20260507025531 25 194 0.0 4.8 0.00 0.00 0.00 24 1009.1
20260507025520 25 201 0.0 4.8 0.00 0.00 0.00 24 1009.1
20260507024528 25 163 0.0 3.2 0.00 0.00 0.00 24 1009.0
20260507024027 25 184 0.0 3.2 0.00 0.00 0.00 24 1009.0
20260507023525 25 187 0.0 3.2 0.00 0.00 0.00 24 1008.9
20260507023025 26 124 0.0 3.2 0.00 0.00 0.00 24 1008.9
20260507022521 26 164 0.0 3.2 0.00 0.00 0.00 24 1008.9
20260507022020 26 167 0.0 4.8 0.00 0.00 0.00 24 1008.8
20260507021517 26 185 0.0 4.8 0.00 0.00 0.00 23 1008.9
20260507021018 26 188 0.0 3.2 0.00 0.00 0.00 23 1008.8
20260507020517 26 143 0.0 6.4 0.00 0.00 0.00 23 1008.8
20260507020016 27 198 0.0 6.4 0.00 0.00 0.00 23 1008.8
20260507015517 27 174 0.0 8.0 0.00 0.00 0.00 23 1008.7
20260507015015 27 207 1.6 8.0 0.00 0.00 0.00 23 1008.7
20260507014515 27 210 0.0 4.8 0.00 0.00 0.00 22 1008.7
20260507014457 27 226 0.0 4.8 0.00 0.00 0.00 23 1008.7
20260507013515 27 202 0.0 6.4 0.00 0.00 0.00 22 1008.6
20260507013019 28 157 0.0 6.4 0.00 0.00 0.00 22 1008.6
20260507012513 28 193 1.6 9.7 0.00 0.00 0.00 22 1008.6
20260507012011 28 178 1.6 9.7 0.00 0.00 0.00 21 1008.6
20260507011511 28 186 1.6 6.4 0.00 0.00 0.00 21 1008.5
20260507011012 28 185 1.6 8.0 0.00 0.00 0.00 21 1008.5
20260507010511 28 105 0.0 8.0 0.00 0.00 0.00 21 1008.6
20260507010011 29 137 0.0 4.8 0.00 0.00 0.00 21 1008.7
20260507005511 29 209 0.0 4.8 0.00 0.00 0.00 21 1008.6
20260507005012 29 108 1.6 8.0 0.00 0.00 0.00 20 1008.6
20260507004511 29 180 1.6 8.0 0.00 0.00 0.00 20 1008.6
20260507004012 29 217 1.6 9.7 0.00 0.00 0.00 21 1008.6
20260507003512 29 84 1.6 9.7 0.00 0.00 0.00 21 1008.6
20260507003012 29 231 1.6 6.4 0.00 0.00 0.00 20 1008.6
20260507002508 29 177 1.6 9.7 0.00 0.00 0.00 21 1008.6
20260507002009 28 47 0.0 9.7 0.00 0.00 0.00 21 1008.5
20260507001508 28 30 1.6 9.7 0.00 0.00 0.00 20 1008.5
20260507001009 29 108 1.6 9.7 0.00 0.00 0.00 20 1008.6
20260507000509 29 195 3.2 11.3 0.00 0.00 0.00 20 1008.6
20260507000458 30 219 3.2 11.3 0.00 0.00 0.00 20 1008.6
20260506235958 30 126 1.6 9.7 0.00 0.00 0.00 20 1008.5
20260506235008 30 214 1.6 9.7 0.00 0.00 0.00 20 1008.6
20260506234510 30 176 0.0 6.4 0.00 0.00 0.00 19 1008.7
20260506234010 29 233 0.0 6.4 0.00 0.00 0.00 20 1008.6
20260506233509 30 312 1.6 6.4 0.00 0.00 0.00 19 1008.7
20260506233456 30 189 1.6 8.0 0.00 0.00 0.00 19 1008.9
20260506232509 30 277 1.6 8.0 0.00 0.00 0.00 19 1008.8
20260506232008 30 212 1.6 8.0 0.00 0.00 0.00 18 1008.9
20260506231508 31 161 1.6 8.0 0.00 0.00 0.00 18 1008.9
20260506231451 31 188 0.0 6.4 0.00 0.00 0.00 18 1009.0
20260506230508 31 259 0.0 6.4 0.00 0.00 0.00 18 1009.1
20260506230009 31 207 1.6 6.4 0.00 0.00 0.00 18 1009.1
20260506225956 31 156 1.6 6.4 0.00 0.00 0.00 18 1009.1
20260506225006 31 223 1.6 6.4 0.00 0.00 0.00 18 1009.1
20260506224504 31 222 0.0 6.4 0.00 0.00 0.00 19 1009.2
20260506224449 31 196 0.0 6.4 0.00 0.00 0.00 18 1009.3
20260506223502 30 148 1.6 6.4 0.00 0.00 0.00 19 1009.3
20260506223001 30 172 1.6 8.0 0.00 0.00 0.00 19 1009.3
20260506222504 30 206 1.6 9.7 0.00 0.00 0.00 19 1009.4
20260506222000 31 203 3.2 9.7 0.00 0.00 0.00 18 1009.4
20260506221500 31 191 3.2 9.7 0.00 0.00 0.00 18 1009.6
20260506221001 31 169 1.6 9.7 0.00 0.00 0.00 19 1009.6
20260506220501 31 244 1.6 9.7 0.00 0.00 0.00 18 1009.7
20260506220004 31 75 0.0 9.7 0.00 0.00 0.00 18 1009.7
20260506215959 31 158 0.0 8.0 0.00 0.00 0.00 18 1009.7
20260506215000 30 229 1.6 8.0 0.00 0.00 0.00 19 1009.8
20260506214501 30 184 3.2 9.7 0.00 0.00 0.00 20 1010.0
20260506214001 30 95 3.2 9.7 0.00 0.00 0.00 19 1010.1
20260506213946 30 130 1.6 6.4 0.00 0.00 0.00 19 1010.2
20260506212955 31 262 1.6 4.8 0.00 0.00 0.00 19 1010.3
20260506212449 31 187 1.6 6.4 0.00 0.00 0.00 19 1010.4
20260506211943 30 184 1.6 8.0 0.00 0.00 0.00 19 1010.5
20260506211928 31 210 1.6 8.0 0.00 0.00 0.00 19 1010.5
20260506210932 30 186 1.6 8.0 0.00 0.00 0.00 19 1010.6
20260506210432 30 64 3.2 8.0 0.00 0.00 0.00 19 1010.7
20260506205933 30 238 1.6 9.7 0.00 0.00 0.00 19 1010.8
20260506205430 31 82 1.6 9.7 0.00 0.00 0.00 19 1010.8
20260506205423 30 190 1.6 8.0 0.00 0.00 0.00 19 1011.0
20260506204430 30 259 1.6 8.0 0.00 0.00 0.00 19 1011.0
20260506203932 30 188 1.6 9.7 0.00 0.00 0.00 20 1011.2
20260506203431 30 161 1.6 9.7 0.00 0.00 0.00 19 1011.2
20260506202929 30 86 1.6 8.0 0.00 0.00 0.00 20 1011.2
20260506202907 30 236 1.6 12.9 0.00 0.00 0.00 20 1011.3
20260506201928 29 208 3.2 12.9 0.00 0.00 0.00 21 1011.3
20260506201429 29 185 1.6 9.7 0.00 0.00 0.00 20 1011.3
20260506200929 29 209 1.6 9.7 0.00 0.00 0.00 21 1011.4
20260506200426 29 173 1.6 9.7 0.00 0.00 0.00 21 1011.3
20260506195929 29 236 1.6 6.4 0.00 0.00 0.00 21 1011.6
20260506195429 29 71 1.6 8.0 0.00 0.00 0.00 20 1011.5
20260506195411 28 103 3.2 8.0 0.00 0.00 0.00 21 1011.5
20260506194430 28 162 1.6 8.0 0.00 0.00 0.00 21 1011.6
20260506193923 29 28 1.6 8.0 0.00 0.00 0.00 20 1011.7
20260506193859 29 124 1.6 9.7 0.00 0.00 0.00 20 1011.7
20260506192912 29 198 1.6 9.7 0.00 0.00 0.00 21 1011.8
20260506192406 30 146 1.6 6.4 0.00 0.00 0.00 21 1011.9
20260506191900 29 193 1.6 8.0 0.00 0.00 0.00 21 1011.7
20260506191354 29 86 1.6 8.0 0.00 0.00 0.00 21 1011.8
20260506190848 29 123 1.6 4.8 0.00 0.00 0.00 22 1011.8
20260506190348 28 204 1.6 8.0 0.00 0.00 0.00 22 1012.0
20260506185846 28 49 1.6 8.0 0.00 0.00 0.00 22 1012.0
20260506185347 29 340 1.6 8.0 0.00 0.00 0.00 22 1012.0
20260506185335 28 160 1.6 8.0 0.00 0.00 0.00 22 1012.1
20260506184345 28 103 1.6 8.0 0.00 0.00 0.00 22 1012.1
20260506183847 28 228 1.6 8.0 0.00 0.00 0.00 22 1012.3
20260506183344 28 257 1.6 8.0 0.00 0.00 0.00 22 1012.4
20260506182844 28 200 1.6 9.7 0.00 0.00 0.00 24 1012.5
20260506182344 27 86 1.6 9.7 0.00 0.00 0.00 24 1012.5
20260506181847 27 103 1.6 9.7 0.00 0.00 0.00 24 1012.6
20260506181345 28 103 1.6 9.7 0.00 0.00 0.00 24 1012.7
20260506180846 28 115 3.2 9.7 0.00 0.00 0.00 24 1012.7
20260506180345 27 169 3.2 9.7 0.00 0.00 0.00 24 1012.8
20260506175843 28 203 1.6 6.4 0.00 0.00 0.00 25 1012.8
20260506175345 28 255 0.0 6.4 0.00 0.00 0.00 25 1012.8
20260506174842 27 79 0.0 3.2 0.00 0.00 0.00 25 1012.8
20260506174829 28 209 0.0 6.4 0.00 0.00 0.00 25 1012.8
20260506173839 27 162 1.6 8.0 0.00 0.00 0.00 25 1012.9
20260506173339 27 188 1.6 8.0 0.00 0.00 0.00 25 1012.8
20260506172838 27 190 1.6 8.0 0.00 0.00 0.00 26 1012.8
20260506172340 27 214 0.0 8.0 0.00 0.00 0.00 26 1012.7
20260506171838 27 81 0.0 3.2 0.00 0.00 0.00 26 1012.7
20260506171338 27 135 0.0 4.8 0.00 0.00 0.00 26 1012.7
20260506171325 27 186 0.0 4.8 0.00 0.00 0.00 27 1012.7
20260506170337 26 205 1.6 6.4 0.00 0.00 0.00 27 1012.7
20260506165836 26 102 1.6 6.4 0.00 0.00 0.00 27 1012.7
20260506165337 26 195 0.0 9.7 0.00 0.00 0.00 28 1012.7
20260506164836 26 79 0.0 9.7 0.00 0.00 0.00 28 1012.8
20260506164337 25 96 1.6 9.7 0.00 0.00 0.00 28 1012.7
20260506163834 25 191 1.6 9.7 0.00 0.00 0.00 28 1012.6
20260506163333 25 251 0.0 6.4 0.00 0.00 0.00 28 1012.7
20260506162835 25 258 0.0 6.4 0.00 0.00 0.00 29 1012.6
20260506162332 25 114 1.6 6.4 0.00 0.00 0.00 29 1012.5
20260506161833 25 210 0.0 4.8 0.00 0.00 0.00 29 1012.5
20260506161814 25 173 0.0 4.8 0.00 0.00 0.00 29 1012.4
20260506160828 25 13 0.0 4.8 0.00 0.00 0.00 29 1012.5
20260506160329 24 86 0.0 3.2 0.00 0.00 0.00 30 1012.4
20260506155824 24 209 0.0 3.2 0.00 0.00 0.00 30 1012.4
20260506155327 24 263 0.0 3.2 0.00 0.00 0.00 30 1012.5
20260506154822 24 224 0.0 3.2 0.00 0.00 0.00 30 1012.5
20260506154324 24 228 0.0 4.8 0.00 0.00 0.00 31 1012.4
20260506153821 23 157 0.0 4.8 0.00 0.00 0.00 31 1012.5
20260506153322 23 248 0.0 3.2 0.00 0.00 0.00 32 1012.5
20260506153306 23 233 0.0 3.2 0.00 0.00 0.00 32 1012.6
20260506152321 22 185 1.6 4.8 0.00 0.00 0.00 33 1012.5
20260506151822 23 270 0.0 4.8 0.00 0.00 0.00 33 1012.6
20260506151759 22 98 0.0 3.2 0.00 0.00 0.00 33 1012.5
20260506150821 22 181 0.0 4.8 0.00 0.00 0.00 33 1012.6
20260506150813 22 212 0.0 4.8 0.00 0.00 0.00 34 1012.7
20260506145822 22 290 0.0 1.6 0.00 0.00 0.00 34 1012.7
20260506145323 22 200 0.0 3.2 0.00 0.00 0.00 34 1012.6
20260506144823 22 2 0.0 3.2 0.00 0.00 0.00 34 1012.5
20260506144323 22 255 0.0 1.6 0.00 0.00 0.00 35 1012.5
20260506144306 22 263 0.0 1.6 0.00 0.00 0.00 35 1012.6
20260506143318 21 165 0.0 1.6 0.00 0.00 0.00 35 1012.4
20260506142818 21 323 0.0 0.0 0.00 0.00 0.00 36 1012.3
20260506142809 21 335 0.0 0.0 0.00 0.00 0.00 37 1012.2
20260506141815 20 20 0.0 1.6 0.00 0.00 0.00 39 1012.3
20260506141317 20 19 0.0 1.6 0.00 0.00 0.00 40 1012.2
20260506140817 19 252 0.0 4.8 0.00 0.00 0.00 42 1012.1
20260506140315 19 358 0.0 4.8 0.00 0.00 0.00 43 1012.1
20260506135815 19 346 0.0 3.2 0.00 0.00 0.00 44 1012.0
20260506135311 18 43 0.0 3.2 0.00 0.00 0.00 44 1011.9
20260506134814 18 14 0.0 1.6 0.00 0.00 0.00 44 1011.9
20260506134311 19 338 0.0 1.6 0.00 0.00 0.00 43 1011.7
20260506133809 18 232 0.0 1.6 0.00 0.00 0.00 43 1011.7
20260506133307 18 232 0.0 1.6 0.00 0.00 0.00 43 1011.6
20260506132808 17 236 0.0 1.6 0.00 0.00 0.00 42 1011.6
20260506132301 17 201 0.0 1.6 0.00 0.00 0.00 43 1011.6
20260506131756 17 210 0.0 1.6 0.00 0.00 0.00 43 1011.6
20260506131250 17 184 0.0 0.0 0.00 0.00 0.00 44 1011.6
20260506130744 16 184 0.0 0.0 0.00 0.00 0.00 45 1011.5
20260506130238 16 176 0.0 0.0 0.00 0.00 0.00 46 1011.4
20260506125732 16 176 0.0 0.0 0.00 0.00 0.00 46 1011.4
20260506125226 16 176 0.0 0.0 0.00 0.00 0.00 47 1011.3
20260506124720 15 176 0.0 0.0 0.00 0.00 0.00 47 1011.3
20260506124214 15 176 0.0 0.0 0.00 0.00 0.00 47 1011.3
20260506123708 16 176 0.0 0.0 0.00 0.00 0.00 46 1011.2
20260506123201 15 175 0.0 0.0 0.00 0.00 0.00 47 1011.0
20260506122656 16 175 0.0 0.0 0.00 0.00 0.00 47 1011.0
20260506122150 15 175 0.0 0.0 0.00 0.00 0.00 47 1010.8
20260506121644 15 177 0.0 0.0 0.00 0.00 0.00 48 1010.7
20260506121138 15 178 0.0 0.0 0.00 0.00 0.00 48 1010.8
20260506120632 15 179 0.0 0.0 0.00 0.00 0.00 48 1010.8
20260506120125 15 178 0.0 0.0 0.00 0.00 0.00 47 1010.8
20260506115620 15 186 0.0 0.0 0.00 0.00 0.00 47 1010.7
20260506115113 15 186 0.0 0.0 0.00 0.00 0.00 47 1010.7
20260506114608 15 194 0.0 0.0 0.00 0.00 0.00 47 1010.7
20260506114102 15 132 0.0 0.0 0.00 0.00 0.00 47 1010.7
20260506114036 15 162 0.0 0.0 0.00 0.00 0.00 47 1010.7
20260506113050 15 179 0.0 0.0 0.00 0.00 0.00 47 1010.7
20260506112544 16 179 0.0 0.0 0.00 0.00 0.00 46 1010.6
20260506112530 16 179 0.0 0.0 0.00 0.00 0.00 46 1010.6
20260506112007 16 179 0.0 0.0 0.00 0.00 0.00 45 1010.6
20260506111026 16 172 0.0 0.0 0.00 0.00 0.00 45 1010.6
20260506110520 16 190 0.0 0.0 0.00 0.00 0.00 46 1010.6
20260506110014 16 190 0.0 0.0 0.00 0.00 0.00 45 1010.5
20260506105947 16 190 0.0 0.0 0.00 0.00 0.00 46 1010.5
20260506105002 16 193 0.0 1.6 0.00 0.00 0.00 47 1010.4
20260506104952 16 179 0.0 1.6 0.00 0.00 0.00 47 1010.4
20260506103950 16 187 0.0 0.0 0.00 0.00 0.00 47 1010.3
20260506103450 16 187 0.0 0.0 0.00 0.00 0.00 46 1010.3
20260506102947 16 185 0.0 0.0 0.00 0.00 0.00 46 1010.2
20260506102448 16 185 0.0 0.0 0.00 0.00 0.00 46 1010.3